Temp
67 69 68 66 66 64 63 65 66 66 67 70 71 71 71 72 73 73 74 74 74 74 73 73 72 72 71 69 69 70 86 89
65 66 67 67 69 65 64 65 65 66 68 67 66 69 70 71 72 72 72 72 73 73 72 71 71 71 70 69 68 69 84 88
65 64 65 65 69 68 66 67 67 67 69 68 70 74 80 84 79 74 72 72 71 72 71 70 70 70 69 69 68 84 86 88
65 63 62 64 69 66 68 70 72 71 70 70 73 73 71 75 75 70 69 69 70 69 70 69 70 86 83 71 81 86 87 88
64 62 62 62 63 66 68 69 69 70 69 67 69 72 76 71 77 77 81 74 81 75 74 80 83 85 88 87 85 83 88 88
63 62 61 60 62 65 65 66 66 68 67 66 67 70 72 73 77 76 77 78 81 82 80 78 83 84 85 86 85 85 88 89
60 61 60 60 60 62 62 63 65 63 66 66 65 65 67 71 73 77 75 76 76 78 81 79 78 81 82 83 84 84 85 88
59 58 58 58 58 58 59 62 62 63 64 64 61 63 64 66 69 73 74 77 76 78 74 78 77 79 80 82 83 85 84 84
57 57 57 57 57 58 59 61 60 61 62 61 61 60 61 62 65 68 72 75 77 72 74 72 74 76 76 80 81 84 85 82
56 57 57 56 56 57 59 60 60 61 62 61 60 59 59 59 62 65 69 71 70 73 73 70 69 71 71 77 79 84 83 82
56 56 56 54 56 57 58 58 59 60 60 61 60 58 58 58 60 62 64 66 70 69 69 70 67 68 70 71 76 81 84 85
56 56 55 55 57 57 58 57 58 58 58 59 57 57 57 57 58 59 61 63 65 67 66 71 69 67 69 68 72 78 83 81
55 54 54 55 55 53 52 51 53 54 56 55 54 56 55 53 52 52 56 60 63 64 66 65 68 72 65 65 66 71 77 79
54 54 54 54 54 52 51 50 50 51 52 52 51 49 48 49 50 51 52 54 57 61 63 67 70 73 66 63 60 61 68 74
53 53 53 53 51 53 51 51 50 48 47 47 49 48 48 48 49 50 51 52 50 56 60 60 64 70 69 63 58 58 64 70
53 52 53 53 51 49 46 44 40 43 43 45 46 46 47 48 48 49 51 51 52 52 56 63 64 61 67 66 61 58 65 65
52 51 52 52 50 48 46 42 42 41 43 42 44 46 46 47 48 48 48 51 51 53 55 58 65 65 66 67 63 58 62 62
51 50 51 51 50 47 44 40 39 38 39 40 42 45 44 44 45 45 46 48 51 52 57 60 62 65 67 68 63 60 58 57
47 48 49 49 48 46 43 40 37 36 37 37 38 40 40 40 41 43 44 48 50 53 57 60 60 59 64 65 65 63 67 64
43 45 46 47 46 44 42 41 38 37 36 36 37 37 38 39 41 43 45 48 50 54 55 57 62 62 60 65 65 66 68 67
MSLP
1018.46 1018.20 1017.91 1017.55 1017.27 1017.26 1016.93 1016.48 1016.03 1015.59 1015.09 1014.61 1014.22 1013.92 1013.80 1013.66 1013.49 1013.45 1013.60 1013.69 1013.69 1013.66 1013.68 1013.79 1014.08 1014.20 1014.32 1014.36 1014.46 1014.39 1013.50 1013.00
1019.07 1018.78 1018.40 1018.06 1017.49 1017.31 1017.19 1016.77 1016.39 1015.85 1015.30 1014.95 1014.39 1013.67 1013.30 1013.22 1013.24 1013.24 1013.33 1013.25 1013.37 1013.23 1013.37 1013.53 1013.72 1013.99 1014.22 1014.32 1014.34 1014.46 1013.75 1012.98
1019.49 1019.41 1019.05 1018.65 1017.87 1017.61 1017.20 1016.79 1016.34 1015.90 1015.33 1015.04 1014.48 1013.92 1012.99 1012.31 1012.12 1012.53 1012.83 1012.88 1012.89 1012.85 1012.92 1013.16 1013.49 1013.71 1013.94 1014.12 1014.36 1013.47 1013.15 1012.63
1019.68 1019.87 1019.64 1019.14 1018.32 1018.01 1017.42 1016.89 1016.41 1016.13 1015.82 1015.49 1014.74 1014.29 1013.82 1013.15 1012.36 1012.30 1012.34 1012.44 1012.53 1012.55 1012.56 1012.78 1013.20 1012.57 1012.81 1013.79 1013.40 1012.68 1012.42 1012.15
1020.12 1020.12 1020.04 1019.68 1019.08 1018.50 1017.83 1017.33 1016.76 1016.31 1016.02 1015.95 1015.31 1014.52 1013.67 1013.40 1012.30 1011.80 1011.52 1011.48 1011.44 1011.93 1012.28 1012.22 1011.97 1011.73 1011.18 1011.51 1012.06 1012.18 1011.84 1011.85
1020.49 1020.52 1020.27 1019.93 1019.61 1018.82 1018.48 1017.80 1017.32 1016.47 1016.31 1016.01 1015.58 1014.65 1013.95 1013.32 1012.51 1011.97 1011.27 1011.16 1010.51 1010.63 1011.11 1011.33 1011.00 1011.01 1010.93 1010.87 1011.31 1011.41 1011.20 1011.16
1020.88 1020.83 1020.54 1020.18 1019.61 1019.14 1018.73 1018.14 1017.43 1017.24 1016.40 1016.00 1015.87 1015.32 1014.38 1013.65 1012.84 1012.03 1011.53 1010.99 1010.76 1010.20 1010.12 1010.61 1010.90 1010.56 1010.63 1010.68 1010.90 1010.94 1010.88 1010.68
1021.18 1020.95 1020.82 1020.46 1019.86 1019.45 1018.94 1018.14 1017.64 1017.13 1016.52 1016.10 1016.11 1015.54 1014.76 1014.00 1013.07 1012.22 1011.65 1010.83 1010.44 1009.96 1010.01 1009.82 1010.22 1010.43 1010.23 1010.23 1010.26 1010.18 1010.37 1010.50
1021.40 1021.11 1020.97 1020.59 1020.04 1019.53 1018.91 1018.20 1017.89 1017.06 1016.44 1016.19 1016.00 1015.69 1014.93 1014.36 1013.37 1012.40 1011.50 1010.86 1009.96 1009.88 1009.64 1009.79 1009.75 1009.94 1009.85 1009.95 1009.82 1009.61 1009.70 1010.06
1021.59 1021.27 1020.86 1020.65 1020.24 1019.65 1018.88 1018.19 1017.80 1016.85 1016.26 1015.89 1015.60 1015.40 1015.15 1014.33 1013.33 1012.36 1011.61 1011.04 1010.46 1009.68 1009.28 1009.35 1009.32 1009.31 1009.54 1009.28 1009.33 1008.96 1009.13 1009.44
1021.47 1021.17 1020.86 1020.69 1020.12 1019.46 1018.76 1018.24 1017.50 1016.85 1016.36 1015.68 1015.24 1015.15 1014.78 1014.16 1013.30 1012.50 1011.96 1011.21 1010.21 1009.89 1009.17 1008.67 1008.80 1008.74 1008.72 1008.86 1008.72 1008.38 1008.19 1008.76
1021.60 1021.32 1021.04 1020.62 1019.84 1019.28 1018.69 1018.15 1017.55 1017.09 1016.32 1015.64 1015.26 1014.80 1014.39 1013.93 1013.16 1012.55 1011.92 1011.06 1010.15 1009.60 1009.15 1008.21 1007.86 1007.96 1007.97 1007.87 1007.77 1007.56 1007.27 1007.95
1021.79 1021.47 1021.08 1020.55 1019.81 1019.24 1018.72 1018.10 1017.71 1017.08 1016.43 1015.83 1015.28 1014.55 1014.12 1013.73 1013.48 1012.89 1012.22 1010.84 1009.79 1009.27 1008.65 1007.95 1006.99 1007.07 1007.51 1007.16 1007.12 1007.20 1006.23 1006.86
1021.85 1021.49 1021.14 1020.69 1020.30 1019.95 1019.47 1018.89 1018.22 1017.42 1016.70 1015.92 1015.31 1014.87 1014.60 1014.00 1013.08 1012.48 1011.95 1010.98 1010.01 1008.91 1008.20 1007.12 1006.27 1005.86 1005.89 1006.70 1006.15 1006.03 1006.79 1006.03
1021.91 1021.57 1021.24 1020.98 1020.75 1019.89 1019.56 1018.79 1018.08 1017.19 1016.60 1015.79 1014.93 1014.60 1014.02 1013.50 1012.82 1012.12 1011.34 1010.72 1010.11 1009.02 1007.99 1007.08 1005.92 1005.09 1005.16 1005.62 1006.62 1005.59 1006.57 1005.84
1022.11 1021.76 1021.43 1021.12 1020.86 1020.23 1019.77 1018.96 1018.23 1017.57 1016.99 1015.98 1015.18 1014.40 1013.58 1012.75 1012.07 1011.33 1010.48 1009.84 1009.36 1008.97 1008.18 1006.34 1005.84 1004.87 1004.76 1004.75 1005.36 1005.34 1005.08 1004.96
1022.17 1021.87 1021.45 1021.19 1020.92 1020.50 1019.92 1019.28 1018.52 1017.96 1017.18 1016.20 1015.25 1014.22 1013.46 1012.53 1011.51 1010.67 1009.86 1009.12 1008.53 1008.14 1007.50 1006.29 1005.00 1004.40 1004.12 1004.29 1004.71 1005.10 1005.03 1004.37
1022.36 1022.02 1021.53 1021.23 1020.83 1020.52 1020.11 1019.51 1018.94 1018.28 1017.42 1016.37 1015.14 1014.00 1013.11 1012.20 1011.26 1010.37 1009.40 1008.50 1007.58 1007.17 1006.34 1005.40 1004.60 1003.85 1003.76 1003.76 1004.02 1003.81 1004.02 1005.10
1022.78 1022.36 1021.74 1021.32 1021.08 1020.76 1020.39 1020.07 1019.71 1018.93 1017.98 1016.92 1015.65 1014.25 1013.03 1011.99 1010.97 1009.66 1008.65 1007.61 1006.83 1006.05 1005.12 1004.09 1003.62 1003.15 1002.98 1002.93 1003.15 1002.68 1002.95 1003.13
1023.53 1022.95 1022.24 1021.83 1021.36 1021.16 1020.78 1020.48 1020.07 1019.24 1018.47 1017.42 1016.13 1014.86 1013.44 1012.07 1010.60 1009.19 1007.72 1006.24 1005.37 1004.95 1004.27 1003.54 1002.79 1002.22 1002.49 1002.19 1002.45 1002.46 1002.64 1002.98
Wind_Speed
14 15 17 19 17 20 21 21 20 20 19 16 13 10 10 10 11 11 10 10 10 10 10 9 10 10 9 9 10 10 10 7
14 14 15 15 14 18 19 18 18 18 18 19 19 14 11 10 10 11 11 11 12 12 11 10 11 10 9 9 9 9 13 8
14 15 14 15 13 13 15 16 15 15 14 15 13 11 13 11 10 10 11 14 12 12 12 11 10 10 10 9 9 9 12 9
14 15 15 14 11 13 12 11 10 10 11 13 9 11 9 14 13 4 9 11 12 12 12 11 10 11 10 10 9 12 9 9
15 14 14 15 12 10 7 7 8 8 11 12 11 9 8 7 7 7 9 13 10 11 9 11 15 12 12 11 13 11 9 8
14 15 13 12 10 8 10 9 9 8 10 12 9 7 9 8 7 10 8 8 12 12 9 12 16 16 15 13 13 11 9 7
14 14 13 12 12 9 9 9 8 11 10 10 9 10 10 10 10 9 9 9 10 11 12 12 13 16 15 15 15 15 14 8
14 14 14 14 12 13 11 9 10 10 10 10 12 10 10 11 11 11 11 11 10 10 11 13 12 13 15 16 16 15 15 14
13 13 13 14 14 12 10 10 10 10 10 12 12 12 12 13 12 12 12 11 15 10 12 11 11 12 14 15 15 16 14 15
13 12 13 14 13 11 9 10 10 10 10 10 13 12 13 13 12 12 12 11 10 12 11 10 10 11 10 13 14 15 16 16
13 13 13 15 13 10 11 12 10 10 11 10 13 14 14 13 12 12 14 13 12 12 11 12 10 11 12 12 13 15 16 14
13 12 14 14 10 10 9 10 10 10 11 11 16 13 15 13 13 14 13 13 13 13 16 13 12 11 12 12 13 14 14 12
13 13 14 12 10 11 11 12 12 12 12 16 15 15 17 15 11 14 14 14 15 16 15 16 12 14 9 11 11 15 16 13
13 13 15 12 11 10 10 11 12 12 12 15 16 16 15 15 14 13 15 14 16 17 17 14 14 14 12 6 9 4 10 12
13 14 15 13 15 11 10 10 10 10 13 13 14 18 18 16 17 14 14 13 12 15 16 16 13 14 19 7 6 9 6 9
13 14 14 13 15 13 16 12 14 12 12 13 14 17 17 16 15 15 15 11 15 13 14 16 15 12 12 11 3 1 8 9
12 14 14 15 15 15 13 15 13 12 12 17 17 15 16 17 15 15 14 12 12 16 17 17 15 13 14 9 12 8 5 11
13 14 14 15 16 17 17 18 18 14 15 13 13 13 12 14 16 14 14 14 14 13 19 22 17 15 13 13 11 9 12 9
13 15 15 17 17 17 18 17 17 17 16 12 17 13 12 15 17 14 13 14 15 15 17 19 17 13 16 13 10 11 9 14
13 14 15 16 17 17 16 17 11 11 13 12 11 12 13 17 16 15 16 18 15 15 13 12 16 11 14 17 12 13 13 13
Wind_Direction
21 13 10 10 11 9 3 1 360 1 359 359 338 311 292 259 247 234 234 235 231 233 231 212 208 209 203 197 195 209 238 219
19 12 9 3 356 3 355 357 354 355 358 359 340 301 253 250 251 244 245 238 229 225 224 219 204 208 208 204 198 211 238 217
15 8 6 359 352 353 346 350 347 348 351 357 342 340 313 275 236 227 238 238 242 229 218 216 203 206 212 200 202 223 221 225
11 5 0 355 352 348 342 341 344 344 345 344 334 325 314 314 295 267 244 240 241 233 222 214 201 227 202 199 223 235 224 236
5 1 357 354 350 340 342 335 336 331 337 339 324 320 317 310 302 272 252 220 236 228 229 234 230 233 232 203 214 227 233 224
359 355 351 353 341 339 331 329 330 324 333 324 327 318 313 304 296 298 281 267 248 222 226 237 231 228 238 230 229 221 230 223
357 348 349 345 337 337 327 320 320 326 313 319 326 314 304 302 292 287 285 282 259 245 226 228 231 236 227 228 227 228 239 231
350 347 348 342 339 334 324 319 323 313 312 318 313 308 304 297 289 283 276 274 272 250 243 233 229 229 232 231 226 228 221 231
349 344 343 340 333 330 319 316 312 312 310 309 308 305 305 299 289 282 276 270 271 255 252 233 231 235 232 229 231 229 229 225
345 345 341 340 330 323 319 316 316 307 310 307 304 302 300 295 288 282 280 279 272 282 245 236 225 218 221 227 227 231 221 229
348 349 347 339 329 324 318 320 311 315 309 303 303 306 297 293 288 285 284 277 264 259 274 236 230 221 218 220 231 229 221 221
351 350 346 338 330 331 327 320 323 318 310 306 311 303 299 295 293 290 285 272 267 259 257 267 223 226 223 222 218 226 226 221
353 348 347 345 344 341 336 333 326 320 316 316 306 306 305 299 287 286 284 274 265 264 259 249 250 220 232 228 225 225 215 210
350 351 349 348 346 334 332 326 322 319 316 318 313 306 303 300 292 283 278 281 273 278 250 249 248 225 219 215 237 187 228 215
349 350 347 347 344 335 333 322 322 323 325 317 318 312 300 292 284 278 273 269 276 268 264 257 255 235 221 199 198 210 195 209
349 350 343 345 345 342 340 337 331 332 320 318 314 307 303 297 288 282 273 264 265 261 280 252 247 242 229 220 224 23 248 212
352 347 345 347 347 352 344 341 337 328 325 320 317 310 307 305 294 288 283 268 251 262 252 265 254 239 229 231 223 230 252 305
354 349 345 350 354 355 353 350 343 332 329 323 320 317 316 309 309 296 292 283 256 247 255 244 250 252 233 226 217 208 221 227
355 351 347 355 356 359 359 353 344 336 334 328 325 324 323 317 310 296 286 274 270 247 248 247 244 236 238 225 213 213 212 202
354 352 351 354 357 360 360 1 350 344 337 334 332 331 325 320 314 307 296 290 242 248 258 246 247 243 252 224 221 213 218 221